User: anonymous   Login
Location: Carr Mill
(33.2054°N, 85.9439°W)
Time: 12:31:55
(UTC+00:00)
Language:

CZ-4B R/B - Orbit

View from above orbital plane
View from above orbital plane
View from above satellite
View from above satellite

Ground track
Ground track

The orbit data is extracted from the following two-line orbital elements,

1 27432U 02024C   21019.07370170 -.00000034  00000-0  66072-5 0  9998
2 27432  99.0899  30.9440 0049547 288.5323 139.8516 14.14102960964206
Epoch (UTC): 19 January 2021 01:46:07
Eccentricity: 0.0049547
inclination: 99.0899°
perigee height: 809 km
apogee height: 881 km
right ascension of ascending node: 30.9440°
argument of perigee: 288.5323°
revolutions per day: 14.14102960
mean anomaly at epoch: 139.8516°
orbit number at epoch: 96420

The dashed part of the orbit path shows where the satellite is in the earth's shadow,  

DLR